Location: Bennemühlen
(52.5740°N, 9.7135°E)
Time: 16:58:03
(UTC+00:00)

SR - Pass Details

Date: 25 February 2026
Orbit: 572 x 848 km, 66.7° (Epoch: 8 March)

Event Time Altitude Azimuth Distance (km) Brightness Sun altitude
Exits shadow 03:20:57 43° 10° (N) 889 ? -27.1°
Drops below altitude 10° 03:24:18 10° 35° (NE) 2,061 ? -26.6°
Sets 03:26:44 0° 39° (NE) 3,022 ? -26.3°
